TimeMDT,TemperatureF,Dew PointF,Humidity,Sea Level PressureIn,VisibilityMPH,Wind Direction,Wind SpeedMPH,Gust SpeedMPH,PrecipitationIn,Events,Conditions,WindDirDegrees,DateUTC
12:53 AM,55.9,35.1,45,30.01,10.0,SSE,5.8,-,N/A,,Clear,150,2013-06-05 06:53:00
1:53 AM,53.1,35.1,50,30.02,10.0,ESE,6.9,-,N/A,,Clear,110,2013-06-05 07:53:00
2:53 AM,48.9,36.0,61,30.04,10.0,East,8.1,-,N/A,,Clear,80,2013-06-05 08:53:00
3:53 AM,48.0,36.0,63,30.04,10.0,East,6.9,-,N/A,,Clear,80,2013-06-05 09:53:00
4:53 AM,48.0,35.1,61,30.05,10.0,ENE,10.4,-,N/A,,Clear,60,2013-06-05 10:53:00
5:53 AM,48.9,35.1,59,30.05,10.0,East,9.2,-,N/A,,Clear,80,2013-06-05 11:53:00
6:53 AM,53.1,36.0,52,30.05,10.0,ENE,11.5,-,N/A,,Clear,70,2013-06-05 12:53:00
7:53 AM,55.0,37.0,51,30.06,10.0,East,12.7,-,N/A,,Clear,80,2013-06-05 13:53:00
8:53 AM,59.0,39.9,49,30.07,10.0,East,11.5,-,N/A,,Clear,90,2013-06-05 14:53:00
9:53 AM,64.0,37.9,38,30.07,10.0,East,10.4,-,N/A,,Clear,90,2013-06-05 15:53:00
10:53 AM,68.0,36.0,31,30.06,10.0,SE,6.9,-,N/A,,Clear,140,2013-06-05 16:53:00
11:53 AM,70.0,35.1,28,30.05,10.0,South,5.8,-,N/A,,Clear,190,2013-06-05 17:53:00
12:53 PM,73.9,36.0,25,30.04,10.0,Variable,4.6,-,N/A,,Clear,0,2013-06-05 18:53:00
1:53 PM,77.0,35.1,22,30.03,10.0,SW,8.1,-,N/A,,Clear,230,2013-06-05 19:53:00
2:53 PM,79.0,34.0,20,30.01,10.0,SW,11.5,-,N/A,,Clear,230,2013-06-05 20:53:00
3:53 PM,80.1,30.0,16,30.00,10.0,West,9.2,21.9,N/A,,Clear,270,2013-06-05 21:53:00
4:53 PM,81.0,28.9,15,29.98,10.0,WSW,15.0,19.6,N/A,,Clear,250,2013-06-05 22:53:00
5:53 PM,81.0,33.1,18,29.96,10.0,WSW,13.8,-,N/A,,Clear,250,2013-06-05 23:53:00
6:53 PM,80.1,28.9,15,29.93,10.0,West,10.4,-,N/A,,Clear,260,2013-06-06 00:53:00
7:53 PM,78.1,28.9,17,29.92,10.0,WSW,12.7,-,N/A,,Clear,250,2013-06-06 01:53:00
8:53 PM,73.0,32.0,22,29.92,10.0,WSW,6.9,-,N/A,,Clear,240,2013-06-06 02:53:00
9:53 PM,66.9,30.0,25,29.93,10.0,WSW,5.8,-,N/A,,Clear,240,2013-06-06 03:53:00
10:53 PM,66.0,34.0,30,29.93,10.0,South,4.6,-,N/A,,Clear,170,2013-06-06 04:53:00
11:53 PM,64.0,32.0,30,29.94,10.0,SW,5.8,-,N/A,,Clear,220,2013-06-06 05:53:00